COSMOS 2584 (704K)

Last updated on Sun Jun 21 2026 00:03:28 GMT+0000 (Coordinated Universal Time)

1 63130U 25042A 26170.95584270 -.00000037 00000+0 00000+0 0 9991 2 63130 65.0856 72.7078 0005135 219.8892 140.1108 2.13103910 10106
UTC large
Height (km)
Speed (km/s)
/
Latitude / Longitude
Inclination (degrees)
Orbital Period (minutes)
Azimuth
Elevation
Range (km)
Doppler Factor

Next 0 passes for location: London (51.5072 / 0.1276)

No passes found over London.
COSMOS 2584 (704K)